Time,TemperatureF,DewpointF,PressureIn,WindDirection,WindDirectionDegrees,WindSpeedMPH,WindSpeedGustMPH,Humidity,HourlyPrecipIn,Conditions,Clouds,dailyrainin,SoftwareType,DateUTC
2013-04-03 00:00:00,43.5,5.1,29.87,NW,320,0.0,3.6,20,0.00,,OVC080,0.00,VWS V14.01,2013-04-03 04:00:00,
2013-04-03 00:01:00,43.3,5.0,29.87,NNE,13,0.0,3.1,20,0.00,,BKN120,0.00,VWS V14.01,2013-04-03 04:01:00,
2013-04-03 00:06:00,43.2,4.8,29.87,NE,41,2.2,2.2,20,0.00,,BKN120,0.00,VWS V14.01,2013-04-03 04:06:00,
2013-04-03 00:11:00,43.0,4.7,29.87,NE,49,4.9,4.9,20,0.00,,BKN120,0.00,VWS V14.01,2013-04-03 04:11:00,
2013-04-03 00:16:00,42.8,4.5,29.87,NE,50,2.7,3.6,20,0.00,,BKN120,0.00,VWS V14.01,2013-04-03 04:16:00,
2013-04-03 00:21:00,42.6,5.4,29.87,NNE,27,2.7,3.1,21,0.00,,BKN120,0.00,VWS V14.01,2013-04-03 04:21:00,
2013-04-03 00:26:00,42.6,5.4,29.87,NNE,30,0.0,2.2,21,0.00,,BKN120,0.00,VWS V14.01,2013-04-03 04:26:00,
2013-04-03 00:31:00,42.6,5.4,29.90,ESE,103,2.2,2.7,21,0.00,,BKN120,0.00,VWS V14.01,2013-04-03 04:31:00,
2013-04-03 00:36:00,42.6,5.4,29.90,East,93,0.0,0.0,21,0.00,,BKN120,0.00,VWS V14.01,2013-04-03 04:36:00,
2013-04-03 00:42:00,42.6,5.4,29.90,NNE,14,4.0,4.9,21,0.00,,BKN120,0.00,VWS V14.01,2013-04-03 04:42:00,
2013-04-03 00:47:00,42.6,5.4,29.90,South,177,4.0,5.4,21,0.00,,BKN120,0.00,VWS V14.01,2013-04-03 04:47:00,
2013-04-03 00:52:00,42.4,5.3,29.90,NNE,25,0.0,3.6,21,0.00,,BKN120,0.00,VWS V14.01,2013-04-03 04:52:00,
2013-04-03 00:57:00,42.4,5.3,29.90,NE,45,5.4,5.4,21,0.00,,BKN120,0.00,VWS V14.01,2013-04-03 04:57:00,
2013-04-03 01:02:00,42.4,5.3,29.90,ENE,78,0.0,2.2,21,0.00,,BKN110,0.00,VWS V14.01,2013-04-03 05:02:00,
2013-04-03 01:07:00,42.4,5.3,29.90,ESE,114,0.0,0.0,21,0.00,,BKN110,0.00,VWS V14.01,2013-04-03 05:07:00,
2013-04-03 01:12:00,42.3,5.1,29.90,ESE,114,0.0,0.0,21,0.00,,BKN110,0.00,VWS V14.01,2013-04-03 05:12:00,
2013-04-03 01:17:00,42.3,5.1,29.90,ESE,114,0.0,0.0,21,0.00,,BKN110,0.00,VWS V14.01,2013-04-03 05:17:00,
2013-04-03 01:22:00,42.1,5.0,29.90,ESE,114,0.0,0.0,21,0.00,,BKN110,0.00,VWS V14.01,2013-04-03 05:22:00,
2013-04-03 01:28:00,42.1,5.0,29.90,ESE,114,0.0,0.0,21,0.00,,BKN110,0.00,VWS V14.01,2013-04-03 05:28:00,
2013-04-03 01:33:00,42.1,5.0,29.90,East,79,0.0,3.6,21,0.00,,BKN110,0.00,VWS V14.01,2013-04-03 05:33:00,
2013-04-03 01:38:00,42.3,5.1,29.90,East,79,0.0,2.2,21,0.00,,BKN110,0.00,VWS V14.01,2013-04-03 05:38:00,
2013-04-03 01:43:00,42.3,5.1,29.90,NNE,30,0.0,0.0,21,0.00,,BKN110,0.00,VWS V14.01,2013-04-03 05:43:00,
2013-04-03 01:48:00,42.1,5.0,29.90,East,86,0.0,0.0,21,0.00,,BKN110,0.00,VWS V14.01,2013-04-03 05:48:00,
2013-04-03 01:53:00,42.1,5.0,29.90,East,80,3.1,4.0,21,0.00,,BKN110,0.00,VWS V14.01,2013-04-03 05:53:00,
2013-04-03 01:58:00,42.1,5.0,29.90,NNE,31,3.6,4.0,21,0.00,,BKN110,0.00,VWS V14.01,2013-04-03 05:58:00,
2013-04-03 02:03:00,41.9,4.8,29.90,NNW,335,0.0,0.0,21,0.00,,BKN110,0.00,VWS V14.01,2013-04-03 06:03:00,
2013-04-03 02:08:00,41.7,4.7,29.90,NNW,346,2.7,2.7,21,0.00,,BKN110,0.00,VWS V14.01,2013-04-03 06:08:00,
2013-04-03 02:13:00,41.5,4.5,29.90,East,85,5.4,5.4,21,0.00,,BKN110,0.00,VWS V14.01,2013-04-03 06:13:00,
2013-04-03 02:18:00,41.5,4.5,29.90,NNE,19,0.0,0.0,21,0.00,,BKN110,0.00,VWS V14.01,2013-04-03 06:18:00,
2013-04-03 02:23:00,41.4,4.4,29.90,NW,315,2.2,2.7,21,0.00,,BKN110,0.00,VWS V14.01,2013-04-03 06:23:00,
2013-04-03 02:29:00,41.4,4.4,29.90,NNE,27,2.7,2.7,21,0.00,,BKN110,0.00,VWS V14.01,2013-04-03 06:29:00,
2013-04-03 02:34:00,41.2,4.2,29.87,NNE,16,2.7,3.1,21,0.00,,BKN110,0.00,VWS V14.01,2013-04-03 06:34:00,
2013-04-03 02:39:00,41.2,4.2,29.87,NNE,18,0.0,0.0,21,0.00,,BKN110,0.00,VWS V14.01,2013-04-03 06:39:00,
2013-04-03 02:44:00,41.2,4.2,29.87,NW,325,0.0,3.6,21,0.00,,BKN110,0.00,VWS V14.01,2013-04-03 06:44:00,
2013-04-03 02:49:00,41.2,4.2,29.90,NW,325,0.0,0.0,21,0.00,,BKN110,0.00,VWS V14.01,2013-04-03 06:49:00,
2013-04-03 02:54:00,41.2,4.2,29.90,NW,325,0.0,0.0,21,0.00,,BKN110,0.00,VWS V14.01,2013-04-03 06:54:00,
2013-04-03 02:59:00,41.0,4.1,29.90,NW,325,0.0,0.0,21,0.00,,BKN110,0.00,VWS V14.01,2013-04-03 06:59:00,
2013-04-03 03:04:00,41.0,4.1,29.87,SW,224,2.7,3.6,21,0.00,,BKN100,0.00,VWS V14.01,2013-04-03 07:04:00,
2013-04-03 03:09:00,40.8,3.9,29.87,ESE,120,3.6,3.6,21,0.00,,BKN100,0.00,VWS V14.01,2013-04-03 07:09:00,
2013-04-03 03:14:00,40.8,3.9,29.87,SE,133,0.0,0.0,21,0.00,,BKN100,0.00,VWS V14.01,2013-04-03 07:14:00,
2013-04-03 03:19:00,40.6,3.8,29.90,SE,133,0.0,0.0,21,0.00,,BKN100,0.00,VWS V14.01,2013-04-03 07:19:00,
2013-04-03 03:25:00,40.6,3.8,29.90,SE,133,0.0,0.0,21,0.00,,BKN100,0.00,VWS V14.01,2013-04-03 07:25:00,
2013-04-03 03:29:00,40.5,3.6,29.90,SE,133,0.0,0.0,21,0.00,,BKN100,0.00,VWS V14.01,2013-04-03 07:29:00,
2013-04-03 03:35:00,40.5,3.6,29.90,SE,133,0.0,0.0,21,0.00,,BKN100,0.00,VWS V14.01,2013-04-03 07:35:00,
2013-04-03 03:40:00,40.3,3.5,29.90,SE,133,0.0,0.0,21,0.00,,BKN100,0.00,VWS V14.01,2013-04-03 07:40:00,
2013-04-03 03:45:00,39.9,3.2,29.90,SE,133,0.0,0.0,21,0.00,,BKN100,0.00,VWS V14.01,2013-04-03 07:45:00,
2013-04-03 03:50:00,39.9,3.2,29.90,SE,133,0.0,0.0,21,0.00,,BKN100,0.00,VWS V14.01,2013-04-03 07:50:00,
2013-04-03 03:55:00,39.9,3.2,29.90,SE,133,0.0,0.0,21,0.00,,BKN100,0.00,VWS V14.01,2013-04-03 07:55:00,
2013-04-03 04:00:00,39.7,3.0,29.90,SW,223,2.2,2.2,21,0.00,,BKN100,0.00,VWS V14.01,2013-04-03 08:00:00,
2013-04-03 04:05:00,39.7,3.0,29.90,SW,223,0.0,0.0,21,0.00,,OVC120,0.00,VWS V14.01,2013-04-03 08:05:00,
2013-04-03 04:10:00,39.6,2.9,29.90,SW,223,0.0,0.0,21,0.00,,OVC120,0.00,VWS V14.01,2013-04-03 08:10:00,
2013-04-03 04:15:00,39.6,2.9,29.90,SW,223,0.0,0.0,21,0.00,,OVC120,0.00,VWS V14.01,2013-04-03 08:15:00,
2013-04-03 04:20:00,39.4,2.7,29.90,SW,223,2.7,2.7,21,0.00,,OVC120,0.00,VWS V14.01,2013-04-03 08:20:00,
2013-04-03 04:25:00,39.4,2.7,29.90,SW,223,0.0,0.0,21,0.00,,OVC120,0.00,VWS V14.01,2013-04-03 08:25:00,
2013-04-03 04:30:00,39.2,2.6,29.90,SW,223,0.0,0.0,21,0.00,,OVC120,0.00,VWS V14.01,2013-04-03 08:30:00,
2013-04-03 04:35:00,39.2,2.6,29.87,SW,223,0.0,0.0,21,0.00,,OVC120,0.00,VWS V14.01,2013-04-03 08:35:00,
2013-04-03 04:41:00,38.8,2.3,29.87,SW,223,0.0,0.0,21,0.00,,OVC120,0.00,VWS V14.01,2013-04-03 08:41:00,
2013-04-03 04:46:00,38.8,2.3,29.87,SW,223,0.0,0.0,21,0.00,,OVC120,0.00,VWS V14.01,2013-04-03 08:46:00,
2013-04-03 04:51:00,38.5,2.0,29.87,SW,223,0.0,0.0,21,0.00,,OVC120,0.00,VWS V14.01,2013-04-03 08:51:00,
2013-04-03 04:56:00,38.1,1.6,29.87,SSE,167,3.6,3.6,21,0.00,,OVC120,0.00,VWS V14.01,2013-04-03 08:56:00,
2013-04-03 05:01:00,37.8,1.4,29.87,SSE,167,0.0,0.0,21,0.00,,OVC120,0.00,VWS V14.01,2013-04-03 09:01:00,
2013-04-03 05:06:00,37.0,1.7,29.87,SSE,167,0.0,0.0,22,0.00,,OVC120,0.00,VWS V14.01,2013-04-03 09:06:00,
2013-04-03 05:12:00,36.7,1.4,29.87,SSE,167,0.0,0.0,22,0.00,,OVC120,0.00,VWS V14.01,2013-04-03 09:12:00,
2013-04-03 05:17:00,36.1,1.0,29.87,SSE,167,0.0,0.0,22,0.00,,OVC120,0.00,VWS V14.01,2013-04-03 09:17:00,
2013-04-03 05:22:00,35.6,0.5,29.87,SSE,167,0.0,0.0,22,0.00,,OVC120,0.00,VWS V14.01,2013-04-03 09:22:00,
2013-04-03 05:27:00,35.2,0.2,29.87,SSE,167,0.0,0.0,22,0.00,,OVC120,0.00,VWS V14.01,2013-04-03 09:27:00,
2013-04-03 05:32:00,35.4,0.4,29.87,SSE,167,0.0,0.0,22,0.00,,OVC120,0.00,VWS V14.01,2013-04-03 09:32:00,
2013-04-03 05:37:00,35.2,0.2,29.87,SSE,167,0.0,0.0,22,0.00,,OVC120,0.00,VWS V14.01,2013-04-03 09:37:00,
2013-04-03 05:42:00,35.2,0.2,29.87,SSE,167,0.0,0.0,22,0.00,,OVC120,0.00,VWS V14.01,2013-04-03 09:42:00,
2013-04-03 05:47:00,35.4,0.4,29.90,SSE,167,0.0,0.0,22,0.00,,OVC120,0.00,VWS V14.01,2013-04-03 09:47:00,
2013-04-03 05:52:00,35.6,0.5,29.90,SSE,167,0.0,2.7,22,0.00,,OVC120,0.00,VWS V14.01,2013-04-03 09:52:00,
2013-04-03 05:57:00,35.8,0.7,29.90,SSE,167,0.0,0.0,22,0.00,,OVC120,0.00,VWS V14.01,2013-04-03 09:57:00,
2013-04-03 06:02:00,36.0,0.8,29.90,SSE,167,0.0,0.0,22,0.00,,BKN100,0.00,VWS V14.01,2013-04-03 10:02:00,
2013-04-03 06:08:00,36.1,1.0,29.90,SSE,167,0.0,0.0,22,0.00,,BKN100,0.00,VWS V14.01,2013-04-03 10:08:00,
2013-04-03 06:13:00,36.3,1.1,29.90,SSE,167,0.0,0.0,22,0.00,,BKN100,0.00,VWS V14.01,2013-04-03 10:13:00,
2013-04-03 06:18:00,36.5,1.3,29.90,SSE,167,0.0,0.0,22,0.00,,BKN100,0.00,VWS V14.01,2013-04-03 10:18:00,
2013-04-03 06:23:00,36.5,1.3,29.90,SSE,167,0.0,0.0,22,0.00,,BKN100,0.00,VWS V14.01,2013-04-03 10:23:00,
2013-04-03 06:28:00,36.7,1.4,29.90,SSE,167,0.0,0.0,22,0.00,,BKN100,0.00,VWS V14.01,2013-04-03 10:28:00,
2013-04-03 06:33:00,36.7,1.4,29.90,WNW,285,0.0,0.0,22,0.00,,BKN100,0.00,VWS V14.01,2013-04-03 10:33:00,
2013-04-03 06:38:00,36.7,1.4,29.90,WNW,285,0.0,0.0,22,0.00,,BKN100,0.00,VWS V14.01,2013-04-03 10:38:00,
2013-04-03 06:43:00,36.7,1.4,29.90,WNW,285,0.0,0.0,22,0.00,,BKN100,0.00,VWS V14.01,2013-04-03 10:43:00,
2013-04-03 06:48:00,36.5,1.3,29.90,WNW,285,0.0,0.0,22,0.00,,BKN100,0.00,VWS V14.01,2013-04-03 10:48:00,
2013-04-03 06:54:00,36.5,1.3,29.90,WNW,285,0.0,0.0,22,0.00,,BKN100,0.00,VWS V14.01,2013-04-03 10:54:00,
2013-04-03 06:59:00,36.3,1.1,29.90,WNW,285,0.0,2.7,22,0.00,,BKN100,0.00,VWS V14.01,2013-04-03 10:59:00,
2013-04-03 07:04:00,36.5,1.3,29.93,NNW,339,0.0,0.0,22,0.00,,OVC100,0.00,VWS V14.01,2013-04-03 11:04:00,
2013-04-03 07:09:00,36.5,1.3,29.93,NNW,339,0.0,0.0,22,0.00,,OVC100,0.00,VWS V14.01,2013-04-03 11:09:00,
2013-04-03 07:14:00,36.5,1.3,29.93,NNW,339,0.0,0.0,22,0.00,,OVC100,0.00,VWS V14.01,2013-04-03 11:14:00,
2013-04-03 07:19:00,36.5,1.3,29.93,NNW,339,0.0,0.0,22,0.00,,OVC100,0.00,VWS V14.01,2013-04-03 11:19:00,
2013-04-03 07:24:00,36.3,1.1,29.93,NNW,339,0.0,0.0,22,0.00,,OVC100,0.00,VWS V14.01,2013-04-03 11:24:00,
2013-04-03 07:29:00,36.3,1.1,29.93,NNW,339,0.0,0.0,22,0.00,,OVC100,0.00,VWS V14.01,2013-04-03 11:29:00,
2013-04-03 07:34:00,36.3,1.1,29.93,NNW,339,0.0,0.0,22,0.00,,OVC100,0.00,VWS V14.01,2013-04-03 11:34:00,
2013-04-03 07:39:00,36.3,1.1,29.93,NNW,339,0.0,0.0,22,0.00,,OVC100,0.00,VWS V14.01,2013-04-03 11:39:00,
2013-04-03 07:44:00,36.5,1.3,29.93,NNW,339,0.0,0.0,22,0.00,,OVC100,0.00,VWS V14.01,2013-04-03 11:44:00,
2013-04-03 07:49:00,36.7,1.4,29.96,NNW,339,0.0,0.0,22,0.00,,OVC100,0.00,VWS V14.01,2013-04-03 11:49:00,
2013-04-03 07:54:00,36.9,1.6,29.96,NNW,339,0.0,0.0,22,0.00,,OVC100,0.00,VWS V14.01,2013-04-03 11:54:00,
2013-04-03 07:59:00,37.0,1.7,29.96,NNW,339,0.0,0.0,22,0.00,,OVC100,0.00,VWS V14.01,2013-04-03 11:59:00,
2013-04-03 08:05:00,37.2,1.9,29.96,NNW,339,0.0,0.0,22,0.00,,BKN110,0.00,VWS V14.01,2013-04-03 12:05:00,
2013-04-03 08:10:00,37.4,1.0,29.96,NNW,339,0.0,0.0,21,0.00,,BKN110,0.00,VWS V14.01,2013-04-03 12:10:00,
2013-04-03 08:15:00,37.6,1.2,29.96,SSE,150,2.7,3.1,21,0.00,,BKN110,0.00,VWS V14.01,2013-04-03 12:15:00,
2013-04-03 08:20:00,37.9,1.5,29.96,SSE,150,2.7,2.7,21,0.00,,BKN110,0.00,VWS V14.01,2013-04-03 12:20:00,
2013-04-03 08:25:00,37.9,1.5,29.96,South,175,0.0,3.1,21,0.00,,BKN110,0.00,VWS V14.01,2013-04-03 12:25:00,
2013-04-03 08:30:00,38.1,1.6,29.96,South,175,0.0,0.0,21,0.00,,BKN110,0.00,VWS V14.01,2013-04-03 12:30:00,
2013-04-03 08:35:00,38.5,2.0,29.96,South,175,0.0,0.0,21,0.00,,BKN110,0.00,VWS V14.01,2013-04-03 12:35:00,
2013-04-03 08:40:00,38.7,2.1,29.96,SSW,212,0.0,0.0,21,0.00,,BKN110,0.00,VWS V14.01,2013-04-03 12:40:00,
2013-04-03 08:45:00,39.0,2.4,29.96,SSW,212,0.0,0.0,21,0.00,,BKN110,0.00,VWS V14.01,2013-04-03 12:45:00,
2013-04-03 08:50:00,39.2,2.6,29.96,SSW,200,0.0,0.0,21,0.00,,BKN110,0.00,VWS V14.01,2013-04-03 12:50:00,
2013-04-03 08:55:00,39.7,3.0,29.96,South,173,0.0,0.0,21,0.00,,BKN110,0.00,VWS V14.01,2013-04-03 12:55:00,
2013-04-03 09:00:00,39.9,3.2,29.96,SSE,167,0.0,0.0,21,0.00,,SCT100,0.00,VWS V14.01,2013-04-03 13:00:00,
2013-04-03 09:06:00,40.1,3.3,29.96,SE,129,0.0,0.0,21,0.00,,SCT100,0.00,VWS V14.01,2013-04-03 13:06:00,
2013-04-03 09:11:00,40.3,3.5,29.96,WSW,248,2.7,2.7,21,0.00,,SCT100,0.00,VWS V14.01,2013-04-03 13:11:00,
2013-04-03 09:16:00,40.5,3.6,29.96,East,100,0.0,0.0,21,0.00,,SCT100,0.00,VWS V14.01,2013-04-03 13:16:00,
2013-04-03 09:21:00,41.2,4.2,29.96,East,100,0.0,2.7,21,0.00,,SCT100,0.00,VWS V14.01,2013-04-03 13:21:00,
2013-04-03 09:26:00,42.1,5.0,29.96,WSW,251,0.0,4.0,21,0.00,,SCT100,0.00,VWS V14.01,2013-04-03 13:26:00,
2013-04-03 09:31:00,43.2,4.8,29.96,ESE,116,2.7,3.6,20,0.00,,SCT100,0.00,VWS V14.01,2013-04-03 13:31:00,
2013-04-03 09:36:00,44.2,5.7,29.96,ESE,106,0.0,2.7,20,0.00,,SCT100,0.00,VWS V14.01,2013-04-03 13:36:00,
2013-04-03 09:41:00,45.3,6.6,29.96,SSE,157,2.7,3.1,20,0.00,,SCT100,0.00,VWS V14.01,2013-04-03 13:41:00,
2013-04-03 09:46:00,46.2,7.4,29.96,ESE,122,4.9,4.9,20,0.00,,SCT100,0.00,VWS V14.01,2013-04-03 13:46:00,
2013-04-03 09:51:00,47.1,7.0,29.96,ESE,121,5.4,6.3,19,0.00,,SCT100,0.00,VWS V14.01,2013-04-03 13:51:00,
2013-04-03 09:56:00,47.1,7.0,29.96,SE,126,4.0,5.4,19,0.00,,SCT100,0.00,VWS V14.01,2013-04-03 13:56:00,
2013-04-03 10:01:00,46.8,6.7,29.96,NNW,330,0.0,2.7,19,0.00,,CLR,0.00,VWS V14.01,2013-04-03 14:01:00,
2013-04-03 10:07:00,46.9,6.8,29.96,WSW,254,3.6,3.6,19,0.00,,CLR,0.00,VWS V14.01,2013-04-03 14:07:00,
2013-04-03 10:12:00,48.2,7.9,29.96,SE,143,2.7,3.6,19,0.00,,CLR,0.00,VWS V14.01,2013-04-03 14:12:00,
2013-04-03 10:17:00,49.8,9.2,29.96,East,85,0.0,4.0,19,0.00,,CLR,0.00,VWS V14.01,2013-04-03 14:17:00,
2013-04-03 10:22:00,51.1,10.3,29.96,SSE,159,4.9,6.3,19,0.00,,CLR,0.00,VWS V14.01,2013-04-03 14:22:00,
2013-04-03 10:27:00,51.4,10.6,29.96,South,174,4.0,4.0,19,0.00,,CLR,0.00,VWS V14.01,2013-04-03 14:27:00,
2013-04-03 10:32:00,51.8,9.7,29.96,SSE,154,5.4,5.4,18,0.00,,CLR,0.00,VWS V14.01,2013-04-03 14:32:00,
2013-04-03 10:37:00,52.3,10.1,29.96,East,92,0.0,2.2,18,0.00,,CLR,0.00,VWS V14.01,2013-04-03 14:37:00,
2013-04-03 10:42:00,52.7,10.4,29.96,ESE,103,0.0,0.0,18,0.00,,CLR,0.00,VWS V14.01,2013-04-03 14:42:00,
2013-04-03 10:47:00,53.4,11.0,29.96,South,182,3.6,3.6,18,0.00,,CLR,0.00,VWS V14.01,2013-04-03 14:47:00,
2013-04-03 10:52:00,54.5,11.9,29.96,NW,308,2.2,5.4,18,0.00,,CLR,0.00,VWS V14.01,2013-04-03 14:52:00,
2013-04-03 10:58:00,55.6,11.5,29.96,SSE,166,3.6,5.4,17,0.00,,CLR,0.00,VWS V14.01,2013-04-03 14:58:00,
2013-04-03 11:03:00,54.5,11.9,29.96,SW,228,5.8,7.6,18,0.00,,CLR,0.00,VWS V14.01,2013-04-03 15:03:00,
2013-04-03 11:08:00,55.2,12.5,29.96,ENE,72,0.0,4.0,18,0.00,,CLR,0.00,VWS V14.01,2013-04-03 15:08:00,
2013-04-03 11:13:00,56.3,12.1,29.96,North,3,0.0,2.2,17,0.00,,CLR,0.00,VWS V14.01,2013-04-03 15:13:00,
2013-04-03 11:18:00,56.3,12.1,29.99,SSE,149,4.0,5.4,17,0.00,,CLR,0.00,VWS V14.01,2013-04-03 15:18:00,
2013-04-03 11:23:00,56.5,12.2,29.99,East,90,3.6,5.8,17,0.00,,CLR,0.00,VWS V14.01,2013-04-03 15:23:00,
2013-04-03 11:29:00,57.2,12.8,29.99,ENE,62,2.7,3.6,17,0.00,,CLR,0.00,VWS V14.01,2013-04-03 15:29:00,
2013-04-03 11:34:00,57.2,12.8,29.99,South,187,0.0,2.2,17,0.00,,CLR,0.00,VWS V14.01,2013-04-03 15:34:00,
2013-04-03 11:39:00,57.0,12.7,29.99,SE,142,3.1,5.4,17,0.00,,CLR,0.00,VWS V14.01,2013-04-03 15:39:00,
2013-04-03 11:44:00,57.0,12.7,29.99,South,172,2.7,3.1,17,0.00,,CLR,0.00,VWS V14.01,2013-04-03 15:44:00,
2013-04-03 11:49:00,57.9,13.4,29.96,SW,214,4.0,4.0,17,0.00,,CLR,0.00,VWS V14.01,2013-04-03 15:49:00,
2013-04-03 11:54:00,58.5,16.4,29.96,WSW,246,4.9,4.9,19,0.00,,CLR,0.00,VWS V14.01,2013-04-03 15:54:00,
2013-04-03 11:59:00,60.3,17.9,29.96,SE,142,4.0,5.8,19,0.00,,CLR,0.00,VWS V14.01,2013-04-03 15:59:00,
2013-04-03 12:04:00,61.0,18.5,29.99,South,172,4.0,4.0,19,0.00,,CLR,0.00,VWS V14.01,2013-04-03 16:04:00,
2013-04-03 12:09:00,61.0,18.5,29.99,SW,223,4.9,4.9,19,0.00,,CLR,0.00,VWS V14.01,2013-04-03 16:09:00,
2013-04-03 12:14:00,61.3,18.8,29.99,SW,224,4.0,4.9,19,0.00,,CLR,0.00,VWS V14.01,2013-04-03 16:14:00,
2013-04-03 12:19:00,61.3,18.8,29.99,ESE,114,5.4,5.8,19,0.00,,CLR,0.00,VWS V14.01,2013-04-03 16:19:00,
2013-04-03 12:24:00,61.0,18.5,29.99,ESE,123,3.6,3.6,19,0.00,,CLR,0.00,VWS V14.01,2013-04-03 16:24:00,
2013-04-03 12:29:00,60.6,18.2,29.99,West,265,4.9,4.9,19,0.00,,CLR,0.00,VWS V14.01,2013-04-03 16:29:00,
2013-04-03 12:34:00,61.3,18.8,29.96,SW,225,4.0,5.4,19,0.00,,CLR,0.00,VWS V14.01,2013-04-03 16:34:00,
2013-04-03 12:40:00,61.0,18.5,29.96,ESE,123,4.0,4.9,19,0.00,,CLR,0.00,VWS V14.01,2013-04-03 16:40:00,
2013-04-03 12:45:00,61.3,18.8,29.96,SSW,196,3.1,5.4,19,0.00,,CLR,0.00,VWS V14.01,2013-04-03 16:45:00,
2013-04-03 12:50:00,61.7,19.0,29.96,West,272,3.6,5.4,19,0.00,,CLR,0.00,VWS V14.01,2013-04-03 16:50:00,
2013-04-03 12:55:00,61.7,19.0,29.96,West,272,0.0,3.6,19,0.00,,CLR,0.00,VWS V14.01,2013-04-03 16:55:00,
2013-04-03 13:00:00,63.3,19.1,29.96,SSW,205,3.1,5.4,18,0.00,,CLR,0.00,VWS V14.01,2013-04-03 17:00:00,
2013-04-03 13:05:00,64.4,20.0,29.96,South,169,0.0,3.1,18,0.00,,CLR,0.00,VWS V14.01,2013-04-03 17:05:00,
2013-04-03 13:10:00,64.2,19.9,29.96,South,178,2.2,3.6,18,0.00,,CLR,0.00,VWS V14.01,2013-04-03 17:10:00,
2013-04-03 13:15:00,64.8,20.3,29.96,SW,236,3.1,4.0,18,0.00,,CLR,0.00,VWS V14.01,2013-04-03 17:15:00,
2013-04-03 13:20:00,64.8,20.3,29.96,SSE,160,6.3,6.3,18,0.00,,CLR,0.00,VWS V14.01,2013-04-03 17:20:00,
2013-04-03 13:25:00,64.4,20.0,29.96,South,183,4.0,4.0,18,0.00,,CLR,0.00,VWS V14.01,2013-04-03 17:25:00,
2013-04-03 13:30:00,64.8,20.3,29.96,West,266,5.4,5.8,18,0.00,,CLR,0.00,VWS V14.01,2013-04-03 17:30:00,
2013-04-03 13:35:00,63.7,19.4,29.93,SSW,206,3.6,5.4,18,0.00,,CLR,0.00,VWS V14.01,2013-04-03 17:35:00,
2013-04-03 13:40:00,62.8,18.7,29.93,ESE,111,2.7,5.4,18,0.00,,CLR,0.00,VWS V14.01,2013-04-03 17:40:00,
2013-04-03 13:45:00,63.7,19.4,29.93,South,170,3.6,3.6,18,0.00,,CLR,0.00,VWS V14.01,2013-04-03 17:45:00,
2013-04-03 13:50:00,64.6,20.1,29.96,SE,127,2.7,3.1,18,0.00,,CLR,0.00,VWS V14.01,2013-04-03 17:50:00,
2013-04-03 13:56:00,65.5,20.9,29.96,South,177,3.6,3.6,18,0.00,,CLR,0.00,VWS V14.01,2013-04-03 17:56:00,
2013-04-03 14:01:00,65.5,20.9,29.96,SSE,148,5.8,5.8,18,0.00,,CLR,0.00,VWS V14.01,2013-04-03 18:01:00,
2013-04-03 14:06:00,66.4,20.3,29.93,South,170,3.6,5.8,17,0.00,,CLR,0.00,VWS V14.01,2013-04-03 18:06:00,
2013-04-03 14:11:00,66.9,20.7,29.93,East,88,2.7,4.0,17,0.00,,CLR,0.00,VWS V14.01,2013-04-03 18:11:00,
2013-04-03 14:16:00,66.7,20.6,29.96,SSE,156,3.6,5.4,17,0.00,,CLR,0.00,VWS V14.01,2013-04-03 18:16:00,
2013-04-03 14:21:00,66.6,20.4,29.96,SSE,153,0.0,0.0,17,0.00,,CLR,0.00,VWS V14.01,2013-04-03 18:21:00,
2013-04-03 14:26:00,66.2,20.1,29.96,SW,230,3.6,7.2,17,0.00,,CLR,0.00,VWS V14.01,2013-04-03 18:26:00,
2013-04-03 14:32:00,66.0,21.3,29.96,SE,144,3.1,6.3,18,0.00,,CLR,0.00,VWS V14.01,2013-04-03 18:32:00,
2013-04-03 14:37:00,65.3,20.7,29.96,SW,227,0.0,3.6,18,0.00,,CLR,0.00,VWS V14.01,2013-04-03 18:37:00,
2013-04-03 14:42:00,64.6,20.1,29.96,SE,125,3.6,4.9,18,0.00,,CLR,0.00,VWS V14.01,2013-04-03 18:42:00,
2013-04-03 14:47:00,63.9,19.6,29.96,SSE,155,3.1,5.8,18,0.00,,CLR,0.00,VWS V14.01,2013-04-03 18:47:00,
2013-04-03 14:52:00,63.1,19.0,29.96,SE,137,3.1,3.1,18,0.00,,CLR,0.00,VWS V14.01,2013-04-03 18:52:00,
2013-04-03 14:57:00,63.1,19.0,29.96,SSE,166,3.1,3.1,18,0.00,,CLR,0.00,VWS V14.01,2013-04-03 18:57:00,
2013-04-03 15:02:00,63.3,19.1,29.96,South,176,0.0,4.9,18,0.00,,CLR,0.00,VWS V14.01,2013-04-03 19:02:00,
2013-04-03 15:07:00,62.8,18.7,29.96,West,264,2.2,3.1,18,0.00,,CLR,0.00,VWS V14.01,2013-04-03 19:07:00,
2013-04-03 15:12:00,62.2,19.5,29.96,South,178,4.0,4.0,19,0.00,,CLR,0.00,VWS V14.01,2013-04-03 19:12:00,
2013-04-03 15:17:00,61.9,19.2,29.96,WSW,255,3.6,3.6,19,0.00,,CLR,0.00,VWS V14.01,2013-04-03 19:17:00,
2013-04-03 15:22:00,61.9,19.2,29.96,SSE,168,2.7,2.7,19,0.00,,CLR,0.00,VWS V14.01,2013-04-03 19:22:00,
2013-04-03 15:27:00,61.9,19.2,29.96,SSE,161,2.7,3.6,19,0.00,,CLR,0.00,VWS V14.01,2013-04-03 19:27:00,
2013-04-03 15:32:00,61.7,19.0,29.96,West,265,3.6,3.6,19,0.00,,CLR,0.00,VWS V14.01,2013-04-03 19:32:00,
2013-04-03 15:37:00,60.6,18.2,29.96,South,186,0.0,4.0,19,0.00,,CLR,0.00,VWS V14.01,2013-04-03 19:37:00,
2013-04-03 15:43:00,60.6,18.2,29.96,South,176,3.6,5.8,19,0.00,,CLR,0.00,VWS V14.01,2013-04-03 19:43:00,
2013-04-03 15:48:00,60.4,18.0,29.96,SSE,156,3.1,4.0,19,0.00,,CLR,0.00,VWS V14.01,2013-04-03 19:48:00,
2013-04-03 15:53:00,60.1,17.7,29.96,SW,225,3.6,4.0,19,0.00,,CLR,0.00,VWS V14.01,2013-04-03 19:53:00,
2013-04-03 15:58:00,59.4,17.1,29.96,SSE,167,5.4,5.4,19,0.00,,CLR,0.00,VWS V14.01,2013-04-03 19:58:00,
2013-04-03 16:03:00,59.0,16.8,29.96,ESE,114,4.0,5.4,19,0.00,,CLR,0.00,VWS V14.01,2013-04-03 20:03:00,
2013-04-03 16:08:00,58.8,16.7,29.96,SW,226,2.7,2.7,19,0.00,,CLR,0.00,VWS V14.01,2013-04-03 20:08:00,
2013-04-03 16:13:00,58.5,16.4,29.96,SE,129,3.6,3.6,19,0.00,,CLR,0.00,VWS V14.01,2013-04-03 20:13:00,
2013-04-03 16:18:00,58.1,16.1,29.96,SW,216,2.2,4.0,19,0.00,,CLR,0.00,VWS V14.01,2013-04-03 20:18:00,
2013-04-03 16:23:00,57.6,15.6,29.96,West,267,0.0,0.0,19,0.00,,CLR,0.00,VWS V14.01,2013-04-03 20:23:00,
2013-04-03 16:28:00,57.6,15.6,29.96,SSE,164,0.0,0.0,19,0.00,,CLR,0.00,VWS V14.01,2013-04-03 20:28:00,
2013-04-03 16:33:00,57.6,15.6,29.96,South,187,2.2,2.2,19,0.00,,CLR,0.00,VWS V14.01,2013-04-03 20:33:00,
2013-04-03 16:38:00,57.6,15.6,29.96,SE,136,2.7,2.7,19,0.00,,CLR,0.00,VWS V14.01,2013-04-03 20:38:00,
2013-04-03 16:44:00,57.4,15.5,29.96,SSE,161,3.1,3.6,19,0.00,,CLR,0.00,VWS V14.01,2013-04-03 20:44:00,
2013-04-03 16:49:00,57.2,12.8,29.96,SSE,154,0.0,2.2,17,0.00,,CLR,0.00,VWS V14.01,2013-04-03 20:49:00,
2013-04-03 16:54:00,57.6,15.6,29.96,South,184,3.6,3.6,19,0.00,,CLR,0.00,VWS V14.01,2013-04-03 20:54:00,
2013-04-03 16:59:00,57.2,12.8,29.96,SSE,155,3.6,3.6,17,0.00,,CLR,0.00,VWS V14.01,2013-04-03 20:59:00,
2013-04-03 17:04:00,57.0,12.7,29.96,SSE,166,2.2,3.1,17,0.00,,CLR,0.00,VWS V14.01,2013-04-03 21:04:00,
2013-04-03 17:10:00,56.8,16.2,29.96,SE,139,2.7,4.0,20,0.00,,CLR,0.00,VWS V14.01,2013-04-03 21:10:00,
2013-04-03 17:15:00,56.1,11.9,29.96,SSW,200,3.6,3.6,17,0.00,,CLR,0.00,VWS V14.01,2013-04-03 21:15:00,
2013-04-03 17:20:00,55.4,11.3,29.96,SSE,163,2.7,2.7,17,0.00,,CLR,0.00,VWS V14.01,2013-04-03 21:20:00,
2013-04-03 17:25:00,54.9,12.2,29.96,SE,140,3.1,3.1,18,0.00,,CLR,0.00,VWS V14.01,2013-04-03 21:25:00,
2013-04-03 17:30:00,54.5,11.9,29.96,South,180,0.0,0.0,18,0.00,,CLR,0.00,VWS V14.01,2013-04-03 21:30:00,
2013-04-03 17:35:00,54.3,11.7,29.96,SSW,206,2.2,2.2,18,0.00,,CLR,0.00,VWS V14.01,2013-04-03 21:35:00,
2013-04-03 17:40:00,54.3,11.7,29.96,SSW,206,0.0,0.0,18,0.00,,CLR,0.00,VWS V14.01,2013-04-03 21:40:00,
2013-04-03 17:45:00,54.1,11.6,29.96,SW,229,0.0,0.0,18,0.00,,CLR,0.00,VWS V14.01,2013-04-03 21:45:00,
2013-04-03 17:50:00,53.8,11.3,29.93,SSW,200,2.7,3.1,18,0.00,,CLR,0.00,VWS V14.01,2013-04-03 21:50:00,
2013-04-03 17:55:00,53.6,11.1,29.93,SSW,200,0.0,0.0,18,0.00,,CLR,0.00,VWS V14.01,2013-04-03 21:55:00,
2013-04-03 18:00:00,53.4,11.0,29.93,SSW,200,2.7,2.7,18,0.00,,CLR,0.00,VWS V14.01,2013-04-03 22:00:00,
2013-04-03 18:05:00,53.1,10.7,29.93,SSW,200,0.0,0.0,18,0.00,,CLR,0.00,VWS V14.01,2013-04-03 22:05:00,
2013-04-03 18:10:00,52.9,10.6,29.93,SSW,200,0.0,0.0,18,0.00,,CLR,0.00,VWS V14.01,2013-04-03 22:10:00,
2013-04-03 18:15:00,52.5,10.2,29.93,SSW,200,0.0,0.0,18,0.00,,CLR,0.00,VWS V14.01,2013-04-03 22:15:00,
2013-04-03 18:21:00,52.0,9.8,29.93,South,186,0.0,2.2,18,0.00,,CLR,0.00,VWS V14.01,2013-04-03 22:21:00,
2013-04-03 18:26:00,51.6,10.7,29.93,South,186,2.7,2.7,19,0.00,,CLR,0.00,VWS V14.01,2013-04-03 22:26:00,
2013-04-03 18:31:00,51.3,10.4,29.93,South,186,2.2,2.7,19,0.00,,CLR,0.00,VWS V14.01,2013-04-03 22:31:00,
2013-04-03 18:36:00,50.7,10.0,29.93,SW,224,0.0,0.0,19,0.00,,CLR,0.00,VWS V14.01,2013-04-03 22:36:00,
2013-04-03 18:41:00,50.4,9.7,29.93,SW,224,0.0,0.0,19,0.00,,CLR,0.00,VWS V14.01,2013-04-03 22:41:00,
2013-04-03 18:46:00,50.2,9.5,29.93,SW,224,0.0,0.0,19,0.00,,CLR,0.00,VWS V14.01,2013-04-03 22:46:00,
2013-04-03 18:51:00,49.8,9.2,29.93,SW,224,0.0,0.0,19,0.00,,CLR,0.00,VWS V14.01,2013-04-03 22:51:00,
2013-04-03 18:57:00,49.5,8.9,29.93,SW,214,0.0,0.0,19,0.00,,CLR,0.00,VWS V14.01,2013-04-03 22:57:00,
2013-04-03 19:02:00,49.1,8.6,29.93,South,185,0.0,2.2,19,0.00,,CLR,0.00,VWS V14.01,2013-04-03 23:02:00,
2013-04-03 19:07:00,48.7,8.3,29.93,South,185,0.0,0.0,19,0.00,,CLR,0.00,VWS V14.01,2013-04-03 23:07:00,
2013-04-03 19:12:00,48.6,8.2,29.93,South,185,0.0,0.0,19,0.00,,CLR,0.00,VWS V14.01,2013-04-03 23:12:00,
2013-04-03 19:17:00,48.2,7.9,29.93,South,183,2.2,2.2,19,0.00,,CLR,0.00,VWS V14.01,2013-04-03 23:17:00,
2013-04-03 19:22:00,48.0,7.7,29.93,South,183,0.0,0.0,19,0.00,,CLR,0.00,VWS V14.01,2013-04-03 23:22:00,
2013-04-03 19:27:00,47.8,7.6,29.93,South,183,0.0,2.2,19,0.00,,CLR,0.00,VWS V14.01,2013-04-03 23:27:00,
2013-04-03 19:32:00,47.5,7.3,29.96,South,183,0.0,0.0,19,0.00,,CLR,0.00,VWS V14.01,2013-04-03 23:32:00,
2013-04-03 19:37:00,47.3,7.1,29.96,South,185,0.0,2.7,19,0.00,,CLR,0.00,VWS V14.01,2013-04-03 23:37:00,
2013-04-03 19:42:00,46.9,6.8,29.96,South,185,2.2,2.2,19,0.00,,CLR,0.00,VWS V14.01,2013-04-03 23:42:00,
2013-04-03 19:47:00,46.8,6.7,29.93,South,185,0.0,2.2,19,0.00,,CLR,0.00,VWS V14.01,2013-04-03 23:47:00,
2013-04-03 19:53:00,46.6,6.5,29.93,South,185,0.0,0.0,19,0.00,,CLR,0.00,VWS V14.01,2013-04-03 23:53:00,
2013-04-03 19:58:00,46.4,6.4,29.93,South,185,0.0,0.0,19,0.00,,CLR,0.00,VWS V14.01,2013-04-03 23:58:00,
2013-04-03 20:03:00,46.2,7.4,29.96,South,185,0.0,0.0,20,0.00,,CLR,0.00,VWS V14.01,2013-04-04 00:03:00,
2013-04-03 20:08:00,46.0,7.2,29.96,South,185,0.0,0.0,20,0.00,,CLR,0.00,VWS V14.01,2013-04-04 00:08:00,
2013-04-03 20:13:00,46.0,7.2,29.96,South,185,0.0,0.0,20,0.00,,CLR,0.00,VWS V14.01,2013-04-04 00:13:00,
2013-04-03 20:18:00,45.9,7.1,29.96,South,185,0.0,0.0,20,0.00,,CLR,0.00,VWS V14.01,2013-04-04 00:18:00,
2013-04-03 20:24:00,45.9,7.1,29.96,South,185,0.0,0.0,20,0.00,,CLR,0.00,VWS V14.01,2013-04-04 00:24:00,
2013-04-03 20:29:00,45.7,6.9,29.96,South,185,0.0,0.0,20,0.00,,CLR,0.00,VWS V14.01,2013-04-04 00:29:00,
2013-04-03 20:34:00,45.5,6.8,29.96,South,185,0.0,0.0,20,0.00,,CLR,0.00,VWS V14.01,2013-04-04 00:34:00,
2013-04-03 20:39:00,45.3,6.6,29.96,South,185,0.0,0.0,20,0.00,,CLR,0.00,VWS V14.01,2013-04-04 00:39:00,
2013-04-03 20:44:00,45.3,6.6,29.96,South,185,0.0,0.0,20,0.00,,CLR,0.00,VWS V14.01,2013-04-04 00:44:00,
2013-04-03 20:49:00,45.1,6.5,29.96,South,185,0.0,0.0,20,0.00,,CLR,0.00,VWS V14.01,2013-04-04 00:49:00,
2013-04-03 20:54:00,45.1,6.5,29.96,South,185,0.0,0.0,20,0.00,,CLR,0.00,VWS V14.01,2013-04-04 00:54:00,
2013-04-03 20:59:00,45.0,6.3,29.96,South,185,0.0,0.0,20,0.00,,CLR,0.00,VWS V14.01,2013-04-04 00:59:00,
2013-04-03 21:04:00,45.0,6.3,29.99,South,185,0.0,0.0,20,0.00,,CLR,0.00,VWS V14.01,2013-04-04 01:04:00,
2013-04-03 21:09:00,45.0,6.3,29.99,South,185,0.0,0.0,20,0.00,,CLR,0.00,VWS V14.01,2013-04-04 01:09:00,
2013-04-03 21:15:00,44.8,6.2,29.99,South,178,3.1,3.1,20,0.00,,CLR,0.00,VWS V14.01,2013-04-04 01:15:00,
2013-04-03 21:20:00,45.0,6.3,29.96,South,177,0.0,0.0,20,0.00,,CLR,0.00,VWS V14.01,2013-04-04 01:20:00,
2013-04-03 21:25:00,44.8,6.2,29.96,South,177,0.0,0.0,20,0.00,,CLR,0.00,VWS V14.01,2013-04-04 01:25:00,
2013-04-03 21:30:00,44.8,6.2,29.96,South,177,0.0,0.0,20,0.00,,CLR,0.00,VWS V14.01,2013-04-04 01:30:00,
2013-04-03 21:35:00,44.8,6.2,29.99,SE,129,0.0,0.0,20,0.00,,CLR,0.00,VWS V14.01,2013-04-04 01:35:00,
2013-04-03 21:40:00,44.8,6.2,29.99,SE,129,0.0,0.0,20,0.00,,CLR,0.00,VWS V14.01,2013-04-04 01:40:00,
2013-04-03 21:46:00,45.0,6.3,29.99,SE,129,0.0,0.0,20,0.00,,CLR,0.00,VWS V14.01,2013-04-04 01:46:00,
2013-04-03 21:51:00,44.8,6.2,29.99,SE,126,0.0,0.0,20,0.00,,CLR,0.00,VWS V14.01,2013-04-04 01:51:00,
2013-04-03 21:56:00,44.8,6.2,29.99,SSW,199,3.1,3.1,20,0.00,,CLR,0.00,VWS V14.01,2013-04-04 01:56:00,
2013-04-03 22:01:00,44.6,6.0,29.99,SSW,199,0.0,0.0,20,0.00,,CLR,0.00,VWS V14.01,2013-04-04 02:01:00,
2013-04-03 22:06:00,44.6,6.0,29.99,SSW,199,0.0,0.0,20,0.00,,CLR,0.00,VWS V14.01,2013-04-04 02:06:00,
2013-04-03 22:11:00,44.6,6.0,29.99,SSW,199,0.0,0.0,20,0.00,,CLR,0.00,VWS V14.01,2013-04-04 02:11:00,
2013-04-03 22:16:00,44.6,6.0,29.99,SSW,199,0.0,0.0,20,0.00,,CLR,0.00,VWS V14.01,2013-04-04 02:16:00,
2013-04-03 22:21:00,44.6,6.0,29.99,SSW,199,0.0,0.0,20,0.00,,CLR,0.00,VWS V14.01,2013-04-04 02:21:00,
2013-04-03 22:26:00,44.6,6.0,29.99,SSW,199,0.0,0.0,20,0.00,,CLR,0.00,VWS V14.01,2013-04-04 02:26:00,
2013-04-03 22:31:00,44.6,6.0,29.99,SSW,199,0.0,0.0,20,0.00,,CLR,0.00,VWS V14.01,2013-04-04 02:31:00,
2013-04-03 22:36:00,44.6,6.0,29.99,SSW,199,0.0,0.0,20,0.00,,CLR,0.00,VWS V14.01,2013-04-04 02:36:00,
2013-04-03 22:41:00,44.6,6.0,29.99,SSW,199,2.2,2.2,20,0.00,,CLR,0.00,VWS V14.01,2013-04-04 02:41:00,
2013-04-03 22:46:00,44.4,5.9,29.99,SW,234,2.2,4.0,20,0.00,,CLR,0.00,VWS V14.01,2013-04-04 02:46:00,
2013-04-03 22:51:00,44.6,6.0,29.99,WSW,249,0.0,0.0,20,0.00,,CLR,0.00,VWS V14.01,2013-04-04 02:51:00,
2013-04-03 22:57:00,44.6,6.0,29.99,East,90,0.0,0.0,20,0.00,,CLR,0.00,VWS V14.01,2013-04-04 02:57:00,
2013-04-03 23:02:00,44.6,6.0,29.99,ESE,122,0.0,0.0,20,0.00,,CLR,0.00,VWS V14.01,2013-04-04 03:02:00,
2013-04-03 23:07:00,44.6,6.0,29.99,ENE,73,0.0,0.0,20,0.00,,CLR,0.00,VWS V14.01,2013-04-04 03:07:00,
2013-04-03 23:12:00,44.4,5.9,29.99,ENE,73,0.0,0.0,20,0.00,,CLR,0.00,VWS V14.01,2013-04-04 03:12:00,
2013-04-03 23:17:00,44.2,5.7,29.99,ENE,73,0.0,0.0,20,0.00,,CLR,0.00,VWS V14.01,2013-04-04 03:17:00,
2013-04-03 23:22:00,44.1,5.6,29.99,ENE,73,0.0,0.0,20,0.00,,CLR,0.00,VWS V14.01,2013-04-04 03:22:00,
2013-04-03 23:27:00,44.1,5.6,29.99,ENE,73,0.0,0.0,20,0.00,,CLR,0.00,VWS V14.01,2013-04-04 03:27:00,
2013-04-03 23:32:00,44.1,5.6,29.99,NW,322,0.0,0.0,20,0.00,,CLR,0.00,VWS V14.01,2013-04-04 03:32:00,
2013-04-03 23:37:00,44.1,5.6,29.99,SE,140,2.7,4.0,20,0.00,,CLR,0.00,VWS V14.01,2013-04-04 03:37:00,
2013-04-03 23:42:00,44.1,5.6,29.99,SE,140,0.0,0.0,20,0.00,,CLR,0.00,VWS V14.01,2013-04-04 03:42:00,
2013-04-03 23:47:00,44.1,5.6,29.99,ESE,112,0.0,0.0,20,0.00,,CLR,0.00,VWS V14.01,2013-04-04 03:47:00,
2013-04-03 23:52:00,44.1,5.6,29.99,ENE,59,0.0,2.2,20,0.00,,CLR,0.00,VWS V14.01,2013-04-04 03:52:00,
2013-04-03 23:58:00,44.1,5.6,29.99,NNE,30,0.0,2.7,20,0.00,,CLR,0.00,VWS V14.01,2013-04-04 03:58:00,